Location: Tom
(33.0437°N, 96.9452°W)
Time: 14:21:33
(UTC-06:00)

N. Korean satellite - Pass Details

Date: 25 January 2019
Orbit: 456 x 510 km, 97.2° (Epoch: 21 February)

Event Time Altitude Azimuth Distance (km) Brightness Sun altitude
Rises 06:17:04 0° 18° (NNE) 2,593 10.3 -14.9°
Reaches altitude 10° 06:19:14 10° 25° (NNE) 1,698 9.5 -14.4°
Maximum altitude 06:22:45 45° 99° (E) 677 7.8 -13.7°
Drops below altitude 10° 06:26:11 10° 173° (S) 1,656 9.5 -13.0°
Sets 06:28:16 0° 180° (S) 2,521 10.4 -12.6°
